Simultaneous Nadir Overpasses (SNOs) Predictions

Prediction of SNOs between GOES-16 and AQUA Satellite Orbit:

Table of predicted SNOs for the next 14.0 days since TLE Epoch: 7/27/2024
Index Date Time (GOES-16) GOES-16 Lat,Lon AQUA Lat,Lon Distance(km) Time Diff (sec)
1 07/27/2024 07:07:18 0.06, -75.20 -0.21, -73.83 156.08 80
2 07/27/2024 19:27:30 -0.06, -75.20 -0.81, -78.72 399.62 80
3 07/29/2024 19:10:38 -0.05, -75.21 0.11, -74.60 70.65 80
4 07/30/2024 07:33:20 0.05, -75.22 0.97, -79.44 480.43 80
5 08/01/2024 07:16:27 0.04, -75.23 0.05, -75.31 9.47 80
6 08/03/2024 06:56:53 0.04, -75.25 -0.85, -71.19 462.68 80
7 08/03/2024 19:17:03 -0.03, -75.25 -0.23, -76.06 92.22 80
8 08/05/2024 19:02:48 -0.03, -75.28 0.67, -71.93 381.59 80
9 08/06/2024 07:22:49 0.02, -75.30 0.37, -76.77 168.55 80
10 08/08/2024 07:03:13 0.02, -75.34 -0.54, -72.63 306.88 80
11 08/08/2024 19:23:23 -0.02, -75.34 -0.51, -77.51 247.29 80
